CLX334 LIMC-LIRF

Flight info

Callsign CLX334
Flight time N/A
Altitude 31000
Route ROBAS DCT TINKU DCT XIBIL
Aircraft B748/H-SDE3FGHIM1M2RWXY/LB1

Departure

Time 2026-05-05 17:06
Airport Milan Malpensa International Airport (LIMC)

Arrival

Time N/A
Airport Rome–Fiumicino Leonardo da Vinci International Airport (LIRF)
Time Latitude Longitude Altitude Speed Heading
2026-05-05 16:39 45.61537 8.72220 723 ft 0 kts 78°
2026-05-05 16:58 45.61537 8.72221 723 ft 0 kts 78°
2026-05-05 16:58 45.61540 8.72246 725 ft 5 kts 78°
2026-05-05 16:58 45.61542 8.72273 726 ft 1 kts 95°
2026-05-05 16:58 45.61540 8.72285 725 ft 3 kts 103°
2026-05-05 16:59 45.61532 8.72312 726 ft 4 kts 120°
2026-05-05 16:59 45.61522 8.72327 725 ft 1 kts 138°
2026-05-05 16:59 45.61503 8.72345 726 ft 4 kts 149°
2026-05-05 16:59 45.61466 8.72360 727 ft 9 kts 167°
2026-05-05 17:00 45.61419 8.72357 725 ft 3 kts 202°
2026-05-05 17:00 45.61410 8.72339 726 ft 5 kts 231°
2026-05-05 17:00 45.61388 8.72263 725 ft 17 kts 249°
2026-05-05 17:00 45.61332 8.72207 725 ft 12 kts 185°
2026-05-05 17:01 45.61183 8.72244 726 ft 33 kts 167°
2026-05-05 17:01 45.60909 8.72314 725 ft 46 kts 168°
2026-05-05 17:01 45.60664 8.72414 727 ft 22 kts 131°
2026-05-05 17:01 45.60639 8.72625 727 ft 22 kts 97°
2026-05-05 17:02 45.60615 8.72864 723 ft 27 kts 95°
2026-05-05 17:02 45.60597 8.73147 727 ft 29 kts 89°
2026-05-05 17:02 45.60687 8.73301 727 ft 18 kts 24°
2026-05-05 17:02 45.60765 8.73345 728 ft 18 kts 19°
2026-05-05 17:03 45.60916 8.73394 725 ft 16 kts
2026-05-05 17:03 45.60989 8.73381 724 ft 17 kts 348°
2026-05-05 17:03 45.61119 8.73343 725 ft 21 kts 349°
2026-05-05 17:03 45.61280 8.73299 727 ft 26 kts 349°
2026-05-05 17:04 45.61469 8.73248 724 ft 29 kts 349°
2026-05-05 17:04 45.61626 8.73237 724 ft 11 kts 24°
2026-05-05 17:04 45.61642 8.73263 727 ft 2 kts 71°
2026-05-05 17:04 45.61638 8.73339 723 ft 19 kts 95°
2026-05-05 17:05 45.61615 8.73472 727 ft 0 kts 117°
2026-05-05 17:05 45.61605 8.73503 727 ft 11 kts 111°
2026-05-05 17:05 45.61599 8.73666 725 ft 17 kts 68°
2026-05-05 17:05 45.61667 8.73726 725 ft 11 kts 358°
2026-05-05 17:06 45.61916 8.73656 724 ft 87 kts 349°
2026-05-05 17:06 45.62874 8.73389 894 ft 177 kts 348°
2026-05-05 17:06 45.64196 8.73052 1372 ft 210 kts 351°
2026-05-05 17:06 45.65707 8.72904 1684 ft 234 kts 358°
2026-05-05 17:07 45.67275 8.72893 2929 ft 221 kts 358°
2026-05-05 17:07 45.68846 8.72799 3998 ft 230 kts 356°
2026-05-05 17:07 45.70463 8.72654 5099 ft 236 kts 356°
2026-05-05 17:07 45.72097 8.72835 6209 ft 238 kts 22°
2026-05-05 17:08 45.73457 8.74166 7195 ft 242 kts 53°
2026-05-05 17:08 45.74180 8.76326 8123 ft 244 kts 78°
2026-05-05 17:08 45.74535 8.78733 9081 ft 249 kts 86°
2026-05-05 17:08 45.74422 8.81181 9926 ft 253 kts 111°
2026-05-05 17:09 45.73822 8.83613 10643 ft 261 kts 116°
2026-05-05 17:09 45.72923 8.85865 11500 ft 263 kts 130°
2026-05-05 17:09 45.71805 8.87986 12336 ft 270 kts 131°
2026-05-05 17:09 45.70667 8.90173 13177 ft 277 kts 130°
2026-05-05 17:10 45.69542 8.92408 13970 ft 284 kts 130°
2026-05-05 17:10 45.68379 8.94722 14746 ft 288 kts 130°
2026-05-05 17:10 45.67196 8.97051 15514 ft 291 kts 130°
2026-05-05 17:10 45.66116 8.99169 16199 ft 295 kts 130°
2026-05-05 17:11 45.64901 9.01553 16950 ft 299 kts 131°